| time (UTC) | temp F | wind direction | speed knots | gust knots | rain 1hr in | rain 24hr in | rain mn in | humidity % | barometer mb |
| 20260902225206 | 69 | 183 | 0.0 | 0.0 | 0.00 | 0.00 | 0.00 | 33 | 1020.3 |
| 20260902223205 | 70 | 183 | 0.0 | 0.0 | 0.00 | 0.00 | 0.00 | 44 | 1020.6 |
| 20260902223102 | 70 | 183 | 0.0 | 0.0 | 0.00 | 0.00 | 0.00 | 44 | 1020.7 |
| 20260902221205 | 70 | 183 | 0.0 | 0.0 | 0.00 | 0.00 | 0.00 | 48 | 1020.3 |
| 20260902215205 | 71 | 183 | 0.0 | 4.3 | 0.00 | 0.00 | 0.00 | 51 | 1020.1 |
| 20260902213205 | 71 | 183 | 0.0 | 4.3 | 0.00 | 0.00 | 0.00 | 52 | 1019.7 |
| 20260902213102 | 71 | 183 | 0.0 | 4.3 | 0.00 | 0.00 | 0.00 | 52 | 1019.6 |
| 20260902211205 | 72 | 178 | 0.0 | 4.3 | 0.00 | 0.00 | 0.00 | 51 | 1019.3 |
| 20260902205204 | 73 | 184 | 0.0 | 3.5 | 0.00 | 0.00 | 0.00 | 51 | 1019.5 |
| 20260902203205 | 73 | 197 | 0.0 | 3.5 | 0.00 | 0.00 | 0.00 | 51 | 1020.0 |
| 20260902203102 | 73 | 197 | 0.0 | 3.5 | 0.00 | 0.00 | 0.00 | 51 | 1020.0 |
| 20260902195205 | 74 | 205 | 0.0 | 5.2 | 0.00 | 0.00 | 0.00 | 50 | 1020.2 |
| 20260902193205 | 74 | 203 | 0.0 | 5.2 | 0.00 | 0.00 | 0.00 | 50 | 1020.1 |
| 20260902193102 | 74 | 203 | 0.0 | 5.2 | 0.00 | 0.00 | 0.00 | 50 | 1020.2 |
| 20260902191742 | 75 | 184 | 6.1 | 7.0 | 0.00 | 0.00 | 0.00 | 49 | 1020.5 |
| 20260902191205 | 76 | 182 | 0.0 | 5.2 | 0.00 | 0.00 | 0.00 | 50 | 1020.3 |
| 20260902185206 | 77 | 212 | 0.0 | 7.0 | 0.00 | 0.00 | 0.00 | 49 | 1020.5 |
| 20260902183205 | 76 | 192 | 0.0 | 7.0 | 0.00 | 0.00 | 0.00 | 49 | 1020.4 |
| 20260902183102 | 76 | 192 | 0.0 | 7.0 | 0.00 | 0.00 | 0.00 | 49 | 1020.4 |
| 20260902181205 | 75 | 184 | 6.1 | 7.0 | 0.00 | 0.00 | 0.00 | 49 | 1020.5 |
| 20260902175207 | 75 | 195 | 0.0 | 7.0 | 0.00 | 0.00 | 0.00 | 49 | 1020.5 |
| 20260902173205 | 75 | 207 | 0.0 | 7.0 | 0.00 | 0.00 | 0.00 | 48 | 1020.6 |
| 20260902173102 | 75 | 207 | 0.0 | 7.0 | 0.00 | 0.00 | 0.00 | 48 | 1020.6 |
| 20260902163207 | 74 | 160 | 0.0 | 0.0 | 0.00 | 0.00 | 0.00 | 42 | 1021.0 |
| 20260902163102 | 74 | 161 | 0.0 | 0.0 | 0.00 | 0.00 | 0.00 | 43 | 1021.1 |
| 20260902161205 | 73 | 211 | 0.0 | 0.0 | 0.00 | 0.00 | 0.00 | 39 | 1021.0 |
| 20260902155205 | 72 | 220 | 0.0 | 0.0 | 0.00 | 0.00 | 0.00 | 38 | 1021.1 |
| 20260902153205 | 72 | 176 | 0.0 | 0.0 | 0.00 | 0.00 | 0.00 | 30 | 1021.6 |
| 20260902153102 | 72 | 176 | 0.0 | 0.0 | 0.00 | 0.00 | 0.00 | 30 | 1021.6 |
| 20260902151207 | 71 | 176 | 0.0 | 0.0 | 0.00 | 0.00 | 0.00 | 30 | 1021.5 |
| 20260902145205 | 70 | 218 | 0.0 | 0.0 | 0.00 | 0.00 | 0.00 | 19 | 1021.5 |
| 20260902143102 | 69 | 345 | 0.0 | 0.0 | 0.00 | 0.00 | 0.00 | 100 | 1021.5 |
| 20260902141205 | 68 | 349 | 0.0 | 0.0 | 0.00 | 0.00 | 0.00 | 100 | 1021.3 |
| 20260902135206 | 67 | 349 | 0.0 | 0.0 | 0.00 | 0.00 | 0.00 | 100 | 1021.2 |
| 20260902133205 | 66 | 349 | 0.0 | 0.0 | 0.00 | 0.00 | 0.00 | 100 | 1021.1 |
| 20260902133102 | 66 | 349 | 0.0 | 0.0 | 0.00 | 0.00 | 0.00 | 100 | 1021.1 |
| 20260902131205 | 66 | 252 | 0.0 | 0.0 | 0.00 | 0.00 | 0.00 | 100 | 1020.8 |
| 20260902125204 | 65 | 252 | 0.0 | 0.0 | 0.00 | 0.00 | 0.00 | 100 | 1021.0 |
| 20260902123204 | 64 | 169 | 0.0 | 0.0 | 0.00 | 0.00 | 0.00 | 100 | 1021.1 |
| 20260902123102 | 64 | 168 | 0.0 | 0.0 | 0.00 | 0.00 | 0.00 | 100 | 1021.0 |
| 20260902121205 | 63 | 167 | 0.0 | 0.0 | 0.00 | 0.00 | 0.00 | 100 | 1021.0 |
| 20260902113206 | 61 | 167 | 0.0 | 0.0 | 0.00 | 0.00 | 0.00 | 100 | 1021.2 |
| 20260902113102 | 61 | 167 | 0.0 | 0.0 | 0.00 | 0.00 | 0.00 | 100 | 1021.1 |
| 20260902103205 | 60 | 167 | 0.0 | 0.0 | 0.00 | 0.00 | 0.00 | 100 | 1020.9 |
| 20260902103102 | 60 | 167 | 0.0 | 0.0 | 0.00 | 0.00 | 0.00 | 100 | 1020.9 |
| 20260902102130 | 60 | 167 | 0.0 | 0.0 | 0.00 | 0.00 | 0.00 | 100 | 1020.0 |
| 20260902101205 | 59 | 167 | 0.0 | 0.0 | 0.00 | 0.00 | 0.00 | 100 | 1020.7 |
| 20260902093204 | 59 | 167 | 0.0 | 0.0 | 0.00 | 0.00 | 0.00 | 100 | 1020.1 |
| 20260902093102 | 59 | 167 | 0.0 | 0.0 | 0.00 | 0.00 | 0.00 | 100 | 1020.1 |
| 20260902091205 | 59 | 167 | 0.0 | 0.0 | 0.00 | 0.00 | 0.00 | 100 | 1020.0 |
| 20260902083205 | 60 | 167 | 0.0 | 0.0 | 0.00 | 0.00 | 0.00 | 100 | 1020.0 |
| 20260902083101 | 60 | 167 | 0.0 | 0.0 | 0.00 | 0.00 | 0.00 | 100 | 1020.0 |
| 20260902081204 | 60 | 167 | 0.0 | 0.0 | 0.00 | 0.00 | 0.00 | 100 | 1020.1 |
| 20260902075204 | 60 | 167 | 0.0 | 0.0 | 0.00 | 0.00 | 0.00 | 100 | 1019.7 |
| 20260902073102 | 60 | 167 | 0.0 | 0.0 | 0.00 | 0.00 | 0.00 | 100 | 1020.0 |
| 20260902071204 | 61 | 167 | 0.0 | 0.0 | 0.00 | 0.00 | 0.00 | 100 | 1019.6 |
| 20260902065204 | 61 | 167 | 0.0 | 0.0 | 0.00 | 0.00 | 0.00 | 100 | 1019.9 |
| 20260902063205 | 61 | 167 | 0.0 | 0.0 | 0.00 | 0.00 | 0.00 | 100 | 1020.0 |
| 20260902063102 | 61 | 167 | 0.0 | 0.0 | 0.00 | 0.00 | 0.00 | 100 | 1020.0 |
| 20260902061204 | 60 | 167 | 0.0 | 0.0 | 0.00 | 0.00 | 0.00 | 100 | 1020.0 |
| 20260902055204 | 60 | 167 | 0.0 | 0.0 | 0.00 | 0.00 | 0.00 | 100 | 1019.6 |
| 20260902053204 | 60 | 167 | 0.0 | 0.0 | 0.00 | 0.00 | 0.00 | 100 | 1019.6 |
| 20260902053102 | 60 | 167 | 0.0 | 0.0 | 0.00 | 0.00 | 0.00 | 100 | 1019.6 |
| 20260902051204 | 60 | 167 | 0.0 | 0.0 | 0.00 | 0.00 | 0.00 | 100 | 1019.0 |
| 20260902045204 | 60 | 167 | 0.0 | 0.0 | 0.00 | 0.00 | 0.00 | 100 | 1019.3 |
| 20260902043204 | 60 | 167 | 0.0 | 0.0 | 0.00 | 0.00 | 0.00 | 100 | 1019.4 |
| 20260902043101 | 60 | 167 | 0.0 | 0.0 | 0.00 | 0.00 | 0.00 | 100 | 1019.3 |
| 20260902033102 | 61 | 167 | 0.0 | 0.0 | 0.00 | 0.00 | 0.00 | 100 | 1018.8 |
| 20260902031204 | 61 | 167 | 0.0 | 0.0 | 0.00 | 0.00 | 0.00 | 100 | 1018.5 |
| 20260902023204 | 61 | 167 | 0.0 | 0.0 | 0.00 | 0.00 | 0.00 | 100 | 1018.8 |
| 20260902023101 | 61 | 167 | 0.0 | 0.0 | 0.00 | 0.00 | 0.00 | 100 | 1018.7 |
| 20260902021204 | 61 | 167 | 0.0 | 0.0 | 0.00 | 0.00 | 0.00 | 100 | 1018.5 |
| 20260902015204 | 61 | 167 | 0.0 | 0.0 | 0.00 | 0.00 | 0.00 | 100 | 1018.5 |
| 20260902015101 | 61 | 167 | 0.0 | 0.0 | 0.00 | 0.00 | 0.00 | 100 | 1018.4 |
| 20260902013604 | 61 | 167 | 0.0 | 0.0 | 0.00 | 0.00 | 0.00 | 100 | 1018.5 |
| 20260902013101 | 61 | 167 | 0.0 | 0.0 | 0.00 | 0.00 | 0.00 | 100 | 1018.5 |
| 20260902012805 | 61 | 167 | 0.0 | 0.0 | 0.00 | 0.00 | 0.00 | 100 | 1018.5 |
| 20260902012404 | 61 | 167 | 0.0 | 0.0 | 0.00 | 0.00 | 0.00 | 100 | 1018.5 |
| 20260902012205 | 61 | 167 | 0.0 | 0.0 | 0.00 | 0.00 | 0.00 | 100 | 1018.5 |
| 20260902012101 | 61 | 167 | 0.0 | 0.0 | 0.00 | 0.00 | 0.00 | 100 | 1018.5 |